NOAA NWS Hourly Roundups by Site

Regional Weather Roundup for Omaha, NE

To Select Another Site Choose from List

Select Site:  

000
ASUS43 KOAX 081510
RWRNE

WEATHER ROUNDUP FOR NEBRASKA
NATIONAL WEATHER SERVICE OMAHA NE
1000 AM CDT WED APR 08 2020

NOTES: SATELLITE DATA IS BEING USED TO AUGMENT CLOUD COVER ABOVE
       12000 FEET.
       "FAIR" INDICATES FEW OR NO CLOUDS BELOW 12,000 FEET WITH NO
       SIGNIFICANT WEATHER AND/OR OBSTRUCTIONS TO VISIBILITY.


NEZ001>004-019>022-054>056-081600-
NEBRASKA PANHANDLE

CITY           SKY/WX    TMP DP  RH WIND       PRES   REMARKS
SCOTTSBLUFF    FAIR      52  30  43 N17       30.07R
ALLIANCE       FAIR      47  30  51 N22       30.06R
CHADRON        FAIR      43  27  53 NE24G30   30.14R
GORDON         FAIR      43  31  62 N25       30.09R
KIMBALL        FAIR      56  27  32 NW22G30   30.06S
SIDNEY         FAIR      54  29  38 N15       30.04R
$$

NEZ057>060-069>072-079>082-081600-
SOUTHWEST NEBRASKA

CITY           SKY/WX    TMP DP  RH WIND       PRES   REMARKS
NORTH PLATTE   FAIR      57  33  40 NE20G29   29.98R
IMPERIAL       FAIR      58  30  34 N25       29.99R
LEXINGTON      FAIR      59  40  50 N25       29.93R
MCCOOK         FAIR      63  32  31 NW20G25   29.94R
OGALLALA       FAIR      56  32  39 N15       30.02R
$$

NEZ005>010-023>029-035>040-094-081600-
NORTH CENTRAL NEBRASKA

CITY           SKY/WX    TMP DP  RH WIND       PRES   REMARKS
VALENTINE      CLOUDY    47  32  56 N18G33    30.05R
AINSWORTH      PTSUNNY   50  37  59 N29       30.02R
BROKEN BOW     FAIR      58  35  42 N18G33    29.93R
O`NEILL        FAIR      55  35  48 N22G29    29.96R
ORD            FAIR      59  38  45 N17G28    29.90R
$$

NEZ041-046>049-061>064-073>077-083>087-081600-
SOUTH CENTRAL NEBRASKA

CITY           SKY/WX    TMP DP  RH WIND       PRES   REMARKS
GRAND ISLAND   FAIR      61  38  42 NW24G30   29.86R
AURORA         FAIR      62  40  44 NW23      29.84R
HASTINGS       FAIR      64  33  31 NW20      29.86R
HEBRON         FAIR      70  34  26 NW14G21   29.82R
HOLDREGE       FAIR      61  32  33 NW20G28   29.90R
KEARNEY        FAIR      60  36  40 N20       29.88R
YORK             N/A     63  37  39 NW18G26   29.81R
$$

NEZ011>018-030>034-042>045-081600-
NORTHEAST NEBRASKA

CITY           SKY/WX    TMP DP  RH WIND       PRES   REMARKS
NORFOLK        FAIR      61  41  47 N21       29.85R
ALBION         FAIR      58  40  51 N21G28    29.88R
BLAIR          FAIR      64   9  11 NW7       29.76R
COLUMBUS       FAIR      60  43  53 N21       29.83R
FREMONT        FAIR      64  43  47 NW21      29.77R
TEKAMAH        FAIR      62  46  55 N17       29.77R
WAYNE          FAIR      62  38  41 N20G28    29.84R
$$

NEZ050>053-065>068-078-088>093-081600-
SOUTHEAST NEBRASKA

CITY           SKY/WX    TMP DP  RH WIND       PRES   REMARKS
LINCOLN        FAIR      69  33  26 NW16      29.77S
OMAHA EPPLEY   FAIR      64  43  46 N7        29.74F
BEATRICE       FAIR      69  41  35 NW10      29.78R
FALLS CITY     FAIR      65  47  52 SW5       29.74F
NEBRASKA CITY  FAIR      70  40  33 W10       29.74R
PLATTSMOUTH    FAIR      71  34  25 W12       29.75R
$$

NEZ044-045-051>053-067-081600-
OMAHA AREA

CITY           SKY/WX    TMP DP  RH WIND       PRES   REMARKS
OMAHA EPPLEY   FAIR      64  43  46 N7        29.74F
BLAIR          FAIR      64   9  11 NW7       29.76R
FREMONT        FAIR      64  43  47 NW21      29.77R
MILLARD        FAIR      65  38  36 NW7       29.75S
OFFUTT AFB     SUNNY     67  40  37 W3        29.74R
PLATTSMOUTH    FAIR      71  34  25 W12       29.75R
WAHOO          FAIR      64  37  36 NW16      29.77R
$$


 

View Past Reports for Omaha, NE.

Products Courtesy of NOAA-NWS
NWS Information Parsing Script by Ken True at Saratoga Weather - Script by SE Lincoln Weather.